Weather History for Providence, RI

Change the Weather History Date:

Tuesday, April 29, 2014

  Actual Average Record
Temperature  
Mean Temperature 45 °F 54 °F  
Max Temperature 48 °F 63 °F 90 °F (1974)
Min Temperature 41 °F 44 °F 31 °F (1909)
Degree Days  
Heating Degree Days 20 12  
Month to date heating degree days 465 468  
Since 1 July heating degree days 5691 5339  
Cooling Degree Days 0 0  
Month to date cooling degree days 0 0  
Year to date cooling degree days 0 0  
Moisture  
Dew Point 35 °F    
Average Humidity 68    
Maximum Humidity 76    
Minimum Humidity 60    
Precipitation  
Precipitation 0.01 in 0.13 in 1.80 in (1923)
Month to date precipitation 4.37 4.23  
Year to date precipitation 19.75 16.39  
Snow  
Snow 0.00 in 0.00 in 0.10 in (1987)
Month to date snowfall 0.3 0.6  
Since 1 July snowfall 43.6 33.8  
Snow Depth 0.00 in    
Sea Level Pressure  
Sea Level Pressure 30.41 in    
Wind  
Wind Speed 14 mph (ENE)    
Max Wind Speed 24 mph    
Max Gust Speed 29 mph    
Visibility 10 miles    
Events Rain    
T = Trace of Precipitation, MM = Missing Value Source: NWS Daily Summary

Daily Weather History Graph

Daily Weather History Graph

Search for Another Location

Airport:

Trip Planner

Search our weather history database for the weather conditions in past years. The results will help you decide how hot, cold, wet, or windy it might be!

Date:

Astronomy

Apr. 29, 2014 Rise Set
Actual Time 5:45 AM EDT 7:41 PM EDT
Civil Twilight 5:14 AM EDT 8:11 PM EDT
Nautical Twilight 4:38 AM EDT 8:48 PM EDT
Astronomical Twilight 3:58 AM EDT 9:28 PM EDT
Moon 6:01 AM EDT (4/29) 8:19 PM EDT (4/29)
Length of Visible Light 14h 56m
Length of Day
13h 56m
New Moon, 0% of the Moon is Illuminated
Apr 29
New Moon
May 6
First Quarter
May 14
Full
May 21
Last Quarter
May 28
New

Hourly Weather History & Observations

Time (EDT) Temp. Windchill Dew Point Humidity Pressure Visibility Wind Dir Wind Speed Gust Speed Precip Events Conditions
12:51 AM 46.0 °F 39.0 °F 37.0 °F 71% 30.23 in 10.0 mi ENE 17.3 mph - N/A   Overcast
1:51 AM 45.0 °F 37.4 °F 36.0 °F 71% 30.24 in 10.0 mi NE 18.4 mph 27.6 mph N/A   Overcast
2:51 AM 44.1 °F 37.1 °F 37.0 °F 76% 30.24 in 10.0 mi ENE 15.0 mph - N/A   Overcast
3:51 AM 44.1 °F 36.8 °F 36.0 °F 73% 30.27 in 10.0 mi ENE 16.1 mph - N/A   Overcast
4:51 AM 43.0 °F 35.7 °F 36.0 °F 76% 30.30 in 10.0 mi NE 15.0 mph - N/A   Overcast
5:51 AM 43.0 °F 37.7 °F 37.0 °F 80% 30.32 in 7.0 mi NE 9.2 mph - 0.00 in Rain Light Rain
6:51 AM 43.0 °F 35.4 °F 35.1 °F 74% 30.33 in 10.0 mi NE 16.1 mph 27.6 mph 0.00 in   Overcast
7:51 AM 44.1 °F 37.7 °F 35.1 °F 71% 30.38 in 10.0 mi NNE 12.7 mph - N/A   Overcast
8:51 AM 44.1 °F 37.7 °F 35.1 °F 71% 30.39 in 10.0 mi NE 12.7 mph - N/A   Overcast
9:51 AM 44.1 °F 36.8 °F 35.1 °F 71% 30.42 in 10.0 mi NE 16.1 mph - 0.00 in Rain Light Rain
10:51 AM 46.4 °F 40.7 °F 33.8 °F 62% 30.42 in 10.0 mi ENE 12.7 mph - N/A   Overcast
11:51 AM 46.0 °F 39.6 °F 34.0 °F 63% 30.43 in 10.0 mi ENE 15.0 mph - N/A   Overcast
12:51 PM 45.0 °F 38.9 °F 35.1 °F 68% 30.45 in 10.0 mi ENE 12.7 mph - N/A   Overcast
1:51 PM 46.9 °F - 34.0 °F 61% 30.45 in 10.0 mi ENE 13.8 mph - N/A   Mostly Cloudy
2:51 PM 46.0 °F 38.8 °F 33.1 °F 61% 30.46 in 10.0 mi ENE 18.4 mph 23.0 mph N/A   Overcast
3:16 PM 48.0 °F - 33.1 °F 56% 30.46 in 10.0 mi East 13.8 mph 24.2 mph N/A   Overcast
3:51 PM 46.0 °F 39.0 °F 33.1 °F 61% 30.45 in 10.0 mi East 17.3 mph - N/A   Overcast
4:04 PM 46.0 °F 39.9 °F 33.1 °F 61% 30.45 in 10.0 mi ENE 13.8 mph - N/A   Overcast
4:51 PM 46.0 °F 39.6 °F 33.1 °F 61% 30.47 in 10.0 mi ENE 15.0 mph - N/A   Overcast
5:51 PM 44.1 °F 37.4 °F 34.0 °F 68% 30.48 in 10.0 mi NE 13.8 mph - N/A   Overcast
6:51 PM 43.0 °F 35.4 °F 33.1 °F 68% 30.48 in 10.0 mi ENE 16.1 mph - N/A   Overcast
7:51 PM 43.0 °F 36.4 °F 34.0 °F 71% 30.49 in 10.0 mi ENE 12.7 mph - N/A   Overcast
8:51 PM 43.0 °F 36.8 °F 34.0 °F 71% 30.51 in 10.0 mi East 11.5 mph - N/A   Overcast
9:51 PM 42.8 °F 35.8 °F 35.6 °F 76% 30.50 in 10.0 mi ENE 13.8 mph - N/A Rain Light Rain
10:51 PM 42.1 °F 36.6 °F 33.1 °F 70% 30.52 in 10.0 mi East 9.2 mph - 0.00 in Rain Light Rain
11:51 PM 42.1 °F 35.7 °F 33.1 °F 70% 30.52 in 10.0 mi East 11.5 mph - 0.00 in Rain Light Rain